Powrót do katalogu

COSMOS 1429

AktywnyNawigacjaLEO
NORAD 13761·PAYLOAD·🇷🇺 Russia

Wystrzelony Jan 19, 1983 z Plesetsk Cosmodrome

Loading…

Następne Przeloty (najbliższe 24 godziny)

TLE

ŚwieżeSource: Space-Track

Epoka: Sep 14, 2026, 14:32 UTC

1 13761U 83002A   26257.60614987 -.00000012  00000-0  23601-4 0  9994
2 13761  74.0215 109.3577 0033037 359.1903  29.4284 12.43440606981510

Śledź COSMOS 1429 w czasie rzeczywistym z AllMySat

Download on the App Store